Location: Aula-Vintri
(58.3875°N, 22.4322°E)
Time: 11:12:10
(UTC+00:00)

ADEOS Rocket - Pass Details

Date: 13 October 2019
Orbit: 859 x 1306 km, 98.7° (Epoch: 11 November)

Event Time Altitude Azimuth Distance (km) Brightness Sun altitude
Rises 17:20:10 0° 15° (NNE) 4,299 6.3 -15.0°
Reaches altitude 10° 17:23:13 10° 24° (NNE) 3,337 5.6 -15.4°
Maximum altitude 17:30:17 36° 89° (E) 1,943 4.0 -16.3°
Drops below altitude 10° 17:37:08 10° 154° (SSE) 3,232 5.3 -17.2°
Sets 17:40:01 0° 163° (SSE) 4,149 6.0 -17.5°
